Flag for U.S.A. Weather past 2 weeks in Providence, Rhode Island, U.S.A.

Now
18 °F

Clear.


Feels Like: 4 °F
Forecast: 8 / 24 °F
Wind: 15 mph from North

Location: Green State Airport

Current Time: Mar 6, 2015 at 1:25:50 AM

Latest Report: Mar 6, 2015 at 12:51 AM


Visibility: 10 mi

Pressure: 30.33 "Hg

Humidity: 49%

Dew point: 2 °F

Location of ProvidenceLocation

Historic Weather in Providence — Graph

°F

Providence temperature yesterday

Maximum temperature yesterday: 36 °F (at 12:51 AM)
Minimum temperature yesterday: 20 °F (at 11:51 PM)
Average temperature yesterday: 28 °F

Past Weeks' High & Low Weather Summary

 TemperatureHumidityPressure
High43 °F (Mar 4, 1:51 PM)100% (Feb 21, 11:51 PM)30.76 "Hg (Feb 21, 11:51 PM)
Low-3 °F (Feb 21, 3:51 AM)28% (Feb 28, 12:51 PM)29.58 "Hg (Feb 19, 12:51 PM)
Average23 °F65%30.15 "Hg
* Reported Feb 18 11:51 PM — Mar 5 11:51 PM, Providence, Weather by CustomWeather, © 2015

Note: Actual official high and low records may vary slightly from our data, if they occured in-between our weather recording intervals... More about our weather records

Advertising

Providence weather history for previous 24 hours

 ConditionsComfort  
Time TempWeatherWind HumidityBarometerVisibility
11:51 PM
Thu, Mar 5
20 °FOvercast.15 mph52%30.30 "Hg10 mi
10:51 PM21 °FOvercast.14 mph57%30.28 "Hg10 mi
9:51 PM22 °FOvercast.10 mph52%30.27 "Hg10 mi
8:51 PM24 °FLight snow. Overcast.8 mph71%30.22 "Hg9 mi
7:51 PM23 °FMostly cloudy.6 mph78%30.20 "Hg10 mi
6:51 PM23 °FMostly cloudy.5 mph78%30.20 "Hg3 mi
5:58 PM22 °FLight snow. Ice fog.6 mph85%30.16 "Hg3 mi
4:51 PM24 °FLight snow. Ice fog.No wind84%30.14 "Hg1 mi
4:01 PM24 °FLight snow. Ice fog.No wind84%30.13 "Hg1 mi
2:51 PM25 °FLight snow. Mostly cloudy.3 mph81%30.11 "Hg1 mi
1:51 PM25 °FSnow. Ice fog.3 mph85%30.10 "Hg0 mi
12:51 PM25 °FLight snow. Ice fog.8 mph85%30.10 "Hg1 mi
12:04 PM27 °FSnow. Ice fog.12 mph85%30.06 "Hg1 mi
11:51 AM27 °FLight snow. Ice fog.7 mph85%30.06 "Hg1 mi
10:58 AM26 °FSnow. Ice fog.10 mph88%30.09 "Hg1 mi
9:51 AM28 °FLight snow. Ice fog.8 mph89%30.08 "Hg1 mi
8:51 AM30 °FSnow. Ice fog.10 mph89%30.05 "Hg1 mi
7:51 AM31 °FLight snow. Ice fog.7 mph89%30.02 "Hg1 mi
6:51 AM31 °FLight snow. Ice fog.5 mph92%29.99 "Hg1 mi
5:51 AM32 °FLight snow. Ice fog.10 mph85%29.97 "Hg1 mi
4:58 AM32 °FLight snow. Ice fog.No wind96%29.94 "Hg2 mi
4:02 AM33 °FLight snow. Fog.3 mph92%29.91 "Hg1 mi
3:55 AM34 °FLight snow. Fog.6 mph88%29.91 "Hg2 mi
3:03 AM35 °FLight rain. Fog.7 mph88%29.87 "Hg5 mi
2:51 AM36 °FLight rain. Overcast.9 mph85%29.87 "Hg7 mi
1:51 AM36 °FLight rain. Fog.No wind92%29.86 "Hg2 mi
Weather by CustomWeather, © 2015

See weather overviewHow to use our weather pages